Location: New York
(40.7127°N, 74.0060°W)
Time: 15:05:29
(UTC-04:00)

DOVE 4 - Visible Passes

Search period start: 22 April 2024 00:00
Search period end: 02 May 2024 00:00
Orbit: 580 x 782 km, 97.7° (Epoch: 22 April)

Date Brightness Start Highest point End Pass type
(mag) Time Alt. Az. Time Alt. Az. Time Alt. Az.
22 Apr ? 22:55:18 10° N 22:58:09 39° NNW 22:58:09 39° NNW visible
23 Apr ? 21:54:27 10° NE 21:56:23 21° NE 21:56:23 21° NE visible
23 Apr ? 23:31:58 10° NNW 23:34:51 24° NW 23:34:51 24° NW visible
24 Apr ? 22:30:07 10° NNE 22:33:05 42° NNE 22:33:05 42° NNE visible
25 Apr ? 00:09:58 10° NW 00:11:22 11° WNW 00:11:32 11° WNW visible
25 Apr ? 21:30:10 10° NE 21:31:19 14° ENE 21:31:19 14° ENE visible
25 Apr ? 23:06:21 10° N 23:09:46 41° NW 23:09:46 41° NW visible
26 Apr ? 22:05:08 10° NNE 22:07:59 31° ENE 22:07:59 31° ENE visible
26 Apr ? 23:43:13 10° NNW 23:46:25 20° WNW 23:46:25 20° WNW visible
27 Apr ? 22:40:58 10° N 22:44:37 60° N 22:44:37 60° N visible
28 Apr ? 21:40:28 10° NE 21:42:49 20° ENE 21:42:49 20° ENE visible
28 Apr ? 23:17:20 10° N 23:21:15 35° WNW 23:21:15 35° WNW visible
29 Apr ? 22:15:47 10° NNE 22:19:26 47° ENE 22:19:26 47° ENE visible
29 Apr ? 23:54:26 10° NNW 23:57:13 16° WNW 23:57:53 16° WNW visible
30 Apr ? 21:16:35 10° ENE 21:17:36 12° ENE 21:17:36 12° ENE visible
30 Apr ? 22:51:46 10° N 22:56:02 63° WNW 22:56:02 63° WNW visible
01 May ? 21:50:50 10° NE 21:54:11 28° E 21:54:11 28° E visible
01 May ? 23:28:15 10° NNW 23:32:09 28° WNW 23:32:38 27° W visible
